N2YJJ-2 Weather Reports


Display with metric or nautical units.
time (UTC)temp
F
wind
direction
speed
MPH
gust
MPH
rain 1hr
in
rain 24hr
in
rain mn
in
humidity
%
barometer
mb
20260903160003 81 252 1.0 5.0 0.01 0.16 0.04 88 1018.4
20260903155003 80 18 1.0 3.0 0.01 0.16 0.04 89 1018.7
20260903154003 79 185 1.0 3.0 0.01 0.17 0.04 92 1018.7
20260903153003 78 100 0.0 2.0 0.00 0.16 0.03 92 1018.8
20260903152003 77 283 0.0 3.0 0.00 0.16 0.03 93 1018.8
20260903151003 77 3 0.0 3.0 0.00 0.16 0.03 95 1018.8
20260903150003 76 255 2.0 5.0 0.00 0.17 0.03 96 1018.9
20260903145004 76 278 0.0 3.0 0.00 0.17 0.03 98 1018.9
20260903144003 75 241 1.0 3.0 0.00 0.18 0.03 99 1018.9
20260903143004 75 232 0.0 2.0 0.00 0.18 0.03 100 1018.7
20260903142003 74 249 1.0 3.0 0.00 0.19 0.03 100 1018.7
20260903141004 74 220 0.0 2.0 0.00 0.20 0.03 100 1018.7
20260903140003 73 271 0.0 3.0 0.00 0.20 0.03 100 1018.7
20260903135003 73 265 0.0 3.0 0.00 0.21 0.03 100 1018.7
20260903133003 72 291 0.0 2.0 0.00 0.24 0.03 100 1019.0
20260903132004 72 308 0.0 3.0 0.01 0.25 0.03 100 1019.0
20260903131004 71 237 0.0 2.0 0.01 0.27 0.03 100 1019.0
20260903130004 71 237 1.0 2.0 0.01 0.29 0.03 100 1019.1
20260903125004 71 237 0.0 3.0 0.01 0.31 0.03 100 1019.2
20260903124003 70 219 0.0 2.0 0.01 0.33 0.03 100 1019.5
20260903122004 71 153 0.0 3.0 0.00 0.37 0.02 100 1019.4
20260903121003 70 280 1.0 3.0 0.00 0.40 0.02 100 1019.2
20260903115001 69 295 0.0 2.0 0.00 0.48 0.02 100 1019.1
20260903114001 68 10 0.0 2.0 0.00 0.56 0.02 100 1019.0
20260903113001 68 79 0.0 1.0 0.00 0.63 0.02 100 1018.7
20260903112001 68 79 0.0 1.0 0.00 0.63 0.02 100 1018.6
20260903111001 68 200 0.0 0.0 0.00 0.63 0.02 100 1018.5
20260903105002 67 200 0.0 0.0 0.00 0.63 0.02 100 1018.4
20260903104003 67 200 0.0 0.0 0.00 0.63 0.02 100 1018.4
20260903103001 67 200 0.0 0.0 0.00 0.63 0.02 100 1018.3
20260903102002 67 200 0.0 0.0 0.00 0.63 0.02 100 1018.3
20260903101001 67 200 0.0 0.0 0.00 0.63 0.02 100 1017.9
20260903100002 68 200 0.0 0.0 0.00 0.63 0.02 100 1017.9
20260903095002 68 200 0.0 1.0 0.00 0.63 0.02 100 1017.7
20260903094002 68 200 0.0 0.0 0.00 0.63 0.02 100 1017.7
20260903093001 68 200 0.0 0.0 0.01 0.63 0.02 100 1017.4
20260903092001 68 200 0.0 0.0 0.01 0.63 0.02 100 1017.3
20260903091002 68 200 0.0 0.0 0.01 0.63 0.02 100 1017.3
20260903090001 69 200 0.0 0.0 0.01 0.63 0.02 100 1017.4
20260903084001 68 200 0.0 0.0 0.01 0.63 0.02 100 1017.3
20260903083001 68 200 0.0 0.0 0.00 0.62 0.01 100 1017.3
20260903082002 68 200 0.0 0.0 0.00 0.62 0.01 100 1017.4
20260903081002 68 200 0.0 1.0 0.00 0.62 0.01 100 1017.3
20260903080001 68 103 0.0 0.0 0.00 0.62 0.01 100 1017.4
20260903075001 68 103 0.0 0.0 0.00 0.62 0.01 100 1017.5
20260903073002 69 103 0.0 0.0 0.00 0.62 0.01 100 1017.1
20260903072001 69 103 0.0 2.0 0.00 0.62 0.01 100 1017.2
20260903071002 69 257 0.0 3.0 0.00 0.62 0.01 100 1017.3
20260903070001 69 177 0.0 2.0 0.00 0.62 0.01 100 1017.5
20260903065002 69 117 0.0 1.0 0.00 0.62 0.01 100 1017.5
20260903064002 69 117 1.0 2.0 0.00 0.62 0.01 100 1017.4
20260903062001 68 244 0.0 0.0 0.00 0.62 0.01 100 1017.5
20260903061001 68 244 0.0 1.0 0.01 0.62 0.01 100 1017.3
20260903060002 68 244 0.0 0.0 0.01 0.62 0.01 100 1017.4
20260903055002 68 244 0.0 0.0 0.01 0.62 0.01 100 1017.7
20260903054002 69 244 0.0 0.0 0.01 0.62 0.01 100 1017.7
20260903052003 69 244 0.0 1.0 0.01 0.62 0.01 100 1017.6
20260903051002 69 244 0.0 1.0 0.00 0.61 0.00 100 1018.0
20260903050002 69 244 1.0 2.0 0.00 0.61 0.00 100 1017.6
20260903045002 69 244 0.0 3.0 0.00 0.61 0.00 100 1017.3
20260903044001 69 224 0.0 3.0 0.00 0.61 0.00 100 1017.1
20260903043002 69 258 1.0 2.0 0.00 0.61 0.00 100 1016.9
20260903042002 69 195 0.0 2.0 0.00 0.61 0.00 100 1016.8
20260903041002 69 195 0.0 0.0 0.00 0.61 0.00 100 1016.6
20260903040002 69 195 0.0 2.0 0.00 0.61 0.00 100 1016.6
20260903035002 69 217 0.0 5.0 0.00 0.61 0.61 100 1016.5
20260903034002 69 237 0.0 2.0 0.00 0.61 0.61 100 1016.7
20260903033003 69 223 0.0 1.0 0.00 0.61 0.61 100 1016.7
20260903032002 69 223 1.0 2.0 0.00 0.61 0.61 100 1016.9
20260903031002 69 223 0.0 2.0 0.01 0.61 0.61 100 1016.9
20260903030003 69 229 0.0 2.0 0.01 0.61 0.61 100 1017.1
20260903025002 69 146 0.0 2.0 0.01 0.61 0.61 100 1017.4
20260903024002 69 178 1.0 2.0 0.01 0.61 0.61 100 1017.8
20260903023004 69 123 0.0 2.0 0.01 0.61 0.61 100 1017.8
20260903022003 69 123 0.0 2.0 0.01 0.61 0.61 100 1017.5
20260903021002 69 152 0.0 3.0 0.00 0.60 0.60 99 1017.4
20260903020002 70 174 0.0 3.0 0.00 0.60 0.60 100 1017.5
20260903014002 70 166 1.0 3.0 0.00 0.60 0.60 99 1017.6
20260903013002 70 115 1.0 3.0 0.00 0.60 0.60 99 1017.9
20260903011002 69 200 1.0 2.0 0.00 0.60 0.60 99 1017.1
20260903005002 69 185 0.0 2.0 0.00 0.60 0.60 99 1016.2
20260903003002 70 148 1.0 3.0 0.01 0.60 0.60 99 1016.1
20260903002002 69 235 0.0 2.0 0.01 0.60 0.60 99 1016.6
20260903000002 70 44 0.0 2.0 0.01 0.60 0.60 98 1016.6
20260902235002 70 63 0.0 3.0 0.01 0.60 0.60 98 1017.2
20260902233003 71 305 1.0 7.0 0.00 0.59 0.59 97 1018.8
20260902232003 72 342 1.0 6.0 0.01 0.59 0.59 97 1020.0
20260902231002 72 216 3.0 9.0 0.01 0.59 0.59 97 1017.7
20260902225002 73 136 3.0 7.0 0.01 0.59 0.59 95 1017.0
20260902224002 75 310 2.0 20.0 0.01 0.59 0.59 93 1016.6
20260902223002 78 340 6.0 14.0 0.01 0.59 0.59 93 1017.2
20260902222002 79 51 1.0 3.0 0.00 0.58 0.58 94 1015.3
20260902221003 80 98 1.0 2.0 0.01 0.58 0.58 93 1015.4
20260902220003 81 200 0.0 1.0 0.01 0.58 0.58 92 1015.5
20260902215003 81 200 0.0 2.0 0.01 0.58 0.58 91 1015.4
20260902214002 81 148 1.0 3.0 0.01 0.58 0.58 90 1015.2
20260902213003 82 213 0.0 2.0 0.01 0.58 0.58 90 1015.7
20260902212002 82 111 0.0 3.0 0.02 0.58 0.58 91 1016.4
20260902210002 83 219 0.0 2.0 0.01 0.57 0.57 89 1017.0
20260902205003 83 219 0.0 2.0 0.01 0.57 0.57 89 1016.9
20260902204002 83 200 1.0 2.0 0.02 0.57 0.57 88 1017.3
20260902200003 85 119 1.0 6.0 0.02 0.56 0.56 84 1017.9
20260902195003 85 210 1.0 3.0 0.02 0.56 0.56 84 1018.2
20260902192003 85 344 2.0 8.0 0.01 0.55 0.55 86 1018.3
20260902191002 84 116 1.0 6.0 0.02 0.55 0.55 86 1018.3
20260902190002 83 233 1.0 3.0 0.01 0.54 0.54 87 1018.2
20260902185003 82 228 1.0 6.0 0.01 0.54 0.54 89 1018.2
20260902184003 82 178 2.0 5.0 0.02 0.54 0.54 88 1018.5
20260902183003 81 115 3.0 7.0 0.02 0.54 0.54 87 1018.7
20260902182003 81 217 1.0 8.0 0.02 0.54 0.54 87 1018.5
20260902180005 81 319 3.0 10.0 0.02 0.53 0.53 90 1018.3
20260902175004 80 313 2.0 7.0 0.02 0.53 0.53 93 1018.6
20260902174003 79 248 1.0 8.0 0.02 0.52 0.52 92 1018.7
20260902173003 79 131 1.0 3.0 0.02 0.52 0.52 92 1019.0
20260902172003 79 270 1.0 3.0 0.02 0.52 0.52 91 1018.9
20260902171003 80 201 2.0 8.0 0.02 0.51 0.51 89 1018.7
20260902170003 80 177 1.0 8.0 0.02 0.51 0.51 90 1019.1
20260902165003 81 203 1.0 7.0 0.02 0.51 0.51 90 1019.9
20260902164003 82 106 1.0 3.0 0.02 0.50 0.50 88 1020.0
20260902163003 82 12 1.0 3.0 0.02 0.50 0.50 88 1019.3
20260902162003 81 244 2.0 6.0 0.02 0.50 0.50 91 1018.9